Regional Weather Roundup
Issued by NWS Newport/Morehead, NC

Current Version | Previous Version | Graphics & Text | Print | Product List | Glossary Off
Versions: 1 2 3 4 5 6 7 8 9 10 11 12 13 14 15 16 17 18 19 20 21 22 23 24 25 26 27 28 29 30 31 32 33 34 35 36 37 38 39 40 41 42 43 44 45 46 47 48 49 50

000
ASUS42 KMHX 261913
RWRMHX
WEATHER ROUNDUP FOR EASTERN NORTH CAROLINA
NATIONAL WEATHER SERVICE NEWPORT/MOREHEAD CITY NC
300 PM EDT MON JUN 26 2017

NOTE: "FAIR" INDICATES FEW OR NO CLOUDS BELOW 12,000 FEET
WITH NO SIGNIFICANT WEATHER AND/OR OBSTRUCTIONS TO VISIBILITY

NCZ015>017-031-032-045>047-102-103-262000-
NORTH COAST

CITY           SKY/WX    TMP DP  RH WIND       PRES   REMARKS
EDENTON        SUNNY     84  51  32 CALM      30.08F
ELIZABETH CITY SUNNY     82  60  47 SE13      30.07S
KITTY HAWK     MOCLDY    77  62  58 NE5       30.07F
MANTEO         CLOUDY    79  59  50 E9        30.08F

$$

NCZ045>047-081-094-103-104-262000-
CENTRAL COAST

CITY           SKY/WX    TMP DP  RH WIND       PRES   REMARKS
FRISCO         NOT AVBL

$$

NCZ095-097-098-100-101-262000-
SOUTHERN COAST

CITY           SKY/WX    TMP DP  RH WIND       PRES   REMARKS
BEAUFORT       CLOUDY    83  65  54 E7        30.06F
CEDAR ISLAND   NOT AVBL
JACKSONVILLE   CLOUDY    83  64  52 VRB3      30.07F
PINEY ISLAND   CLOUDY   N/A N/A N/A E13       30.07F
WILMINGTON     CLOUDY    83  61  47 N7        30.07F


$$

NCZ011>013-027>030-043-044-078>080-089-090>093-098-262000-
COASTAL PLAIN

CITY           SKY/WX    TMP DP  RH WIND       PRES   REMARKS
AHOSKIE          N/A     80  52  36 S5        30.08F
CLINTON        SUNNY     84  59  42 CALM      30.09F
ELIZABETHTOWN  NOT AVBL
GOLDSBORO      SUNNY     83  55  37 S5        30.07F
GREENVILLE     SUNNY     84  52  32 CALM      30.09F
HAVELOCK       CLOUDY    83  59  44 NE12      30.08F
KENANSVILLE    SUNNY     82  54  36 S5        30.09F
KINSTON        SUNNY     84  54  34 N3        30.08F
NEW BERN       PTSUNNY   81  63  54 E5        30.09F
RICHLANDS      PTSUNNY   82  61  48 N6        30.08F
ROCKY MOUNT    SUNNY     84  51  31 NW6       30.08F
WASHINGTON     SUNNY    N/A N/A N/A CALM      30.08S
WHITEVILLE     PTSUNNY   82  57  43 E5        30.08F

$$

AMZ130-135-150-152-154-156-158-170-250-252-270-ANZ085-086-088-633-658-670-262000-
MARINE OBSERVATIONS

STATION/POSITION TIME  TEMP    WIND        PRES    WAVE   SWELL
                       AIR SEA DIR/SP/G            HT/PER HT/PER
                 (UTC) (F)     (DEG/KT/KT) (MB)    (FT/S) (FT/S)
CHESAPEAKE LIGHT NOT AVBL
64 E VA BEACH    1850   74 74   80/  4/  6 1019.0    2/ 8   2/ 8
DUCK             1842   76 73   70/  4/  5 1018.2
2 E DUCK         NOT AVBL
OREGON INLET     1842   76 72   30/  8/ 10 1018.5
13E OREGON INLT  1848      74                N/A     2/ 8   2/ 8
HATTERAS CG      1842   80 77   60/  7/ 11 1018.2
DIAMOND BUOY     1850   78 81   30/  8/ 12 1018.0    2/ 8   2/ 8
CAPE LOOKOUT     1900   78     110/  4/  5 1017.9
BEAUFORT LAB     1842   81 78   50/  6/ 11 1017.6
30 SE NEW RVR IN 1808   78 80  110/  6/ 10 1018.6
30 SE NEW RVR IN 1843      81                N/A     2/ 8
27 SE WRIGHTSVLE 1808   78 81   90/  8/ 12 1018.2
5 SE WRIGHTSVLE  1808   78 79   40/  8/ 12 1018.6
225 S CAPE HAT   1850   78 81  310/ 14/ 16 1018.5    3/ 6   2/ 8
41 SE CHARLESTON 1850   78 81   30/ 14/ 16 1017.4    3/ 5   2/ 7

$$




USA.gov is the U.S. government's official web portal to all federal, state and local government web resources and services.